,,,PA_Meas_PMT16A,,PR_Meas_QMR101_102,,RH_Meas_QMH101,,SR_Meas_QMS101,,TA_Meas_QMH101,,GenWind,,GenWind,
date,time,status,PA,status,PR,status,RH,status,SR,status,TA,status,DirAvg,status,SpdAvg,
2012-06-25, 00:00:04,VALID,1001.39,VALID,0,VALID,79.4778,VALID,0,VALID,24.0116,VALID,113,VALID,0.566406,
2012-06-25, 00:01:04,VALID,1001.43,VALID,0,VALID,79.4625,VALID,0,VALID,24.0311,VALID,113,VALID,0.400391,
2012-06-25, 00:02:04,VALID,1001.4,VALID,0,VALID,79.4243,VALID,0,VALID,24.0311,VALID,113,VALID,0.529688,
2012-06-25, 00:03:04,VALID,1001.39,VALID,0,VALID,79.7677,VALID,0,VALID,24.0311,VALID,79,VALID,0.90625,
2012-06-25, 00:04:04,VALID,1001.41,VALID,0,VALID,79.6838,VALID,0,VALID,23.9939,VALID,79,VALID,0.383984,
2012-06-25, 00:05:04,VALID,1001.38,VALID,0,VALID,79.493,VALID,0,VALID,23.914,VALID,79,VALID,0,
2012-06-25, 00:06:04,VALID,1001.36,VALID,0,VALID,79.5846,VALID,0,VALID,23.8573,VALID,79,VALID,0.440625,
2012-06-25, 00:07:04,VALID,1001.39,VALID,0,VALID,80.0423,VALID,0,VALID,23.7579,VALID,79,VALID,0.474219,
2012-06-25, 00:08:04,VALID,1001.42,VALID,0,VALID,80.05,VALID,0,VALID,23.6994,VALID,79,VALID,0.271094,
2012-06-25, 00:09:04,VALID,1001.4,VALID,0,VALID,80.4925,VALID,0,VALID,23.6214,VALID,79,VALID,0.163281,
2012-06-25, 00:10:04,VALID,1001.41,VALID,0,VALID,81.553,VALID,0,VALID,23.6019,VALID,79,VALID,0.5625,
2012-06-25, 00:11:04,VALID,1001.42,VALID,0,VALID,81.7972,VALID,0,VALID,23.6019,VALID,37,VALID,0.809375,
2012-06-25, 00:12:04,VALID,1001.42,VALID,0,VALID,82.2855,VALID,0,VALID,23.6019,VALID,37,VALID,0.528516,
2012-06-25, 00:13:04,VALID,1001.42,VALID,0,VALID,82.4533,VALID,0,VALID,23.6604,VALID,37,VALID,0.696094,
2012-06-25, 00:14:04,VALID,1001.42,VALID,0,VALID,82.5296,VALID,0,VALID,23.6799,VALID,37,VALID,0.7625,
2012-06-25, 00:15:04,VALID,1001.4,VALID,0,VALID,81.0876,VALID,0,VALID,23.6799,VALID,37,VALID,0.764453,
2012-06-25, 00:16:04,VALID,1001.38,VALID,0,VALID,80.7977,VALID,0,VALID,23.6214,VALID,37,VALID,0.758594,
2012-06-25, 00:17:04,VALID,1001.34,VALID,0,VALID,81.2478,VALID,0,VALID,23.5433,VALID,1,VALID,1.0125,
2012-06-25, 00:18:04,VALID,1001.35,VALID,0,VALID,81.9726,VALID,0,VALID,23.4653,VALID,1,VALID,0.605469,
2012-06-25, 00:19:04,VALID,1001.32,VALID,0,VALID,82.3541,VALID,0,VALID,23.4067,VALID,1,VALID,0.536328,
2012-06-25, 00:20:04,VALID,1001.32,VALID,0,VALID,82.7585,VALID,0,VALID,23.4085,VALID,1,VALID,0.541016,
2012-06-25, 00:21:04,VALID,1001.33,VALID,0,VALID,82.9263,VALID,0,VALID,23.3482,VALID,325,VALID,0.600781,
2012-06-25, 00:22:04,VALID,1001.33,VALID,0,VALID,83.1705,VALID,0,VALID,23.3092,VALID,325,VALID,0.340625,
2012-06-25, 00:23:04,VALID,1001.29,VALID,0,VALID,83.2697,VALID,0.104696,VALID,23.2702,VALID,335,VALID,0.776172,
2012-06-25, 00:24:04,VALID,1001.3,VALID,0,VALID,83.4299,VALID,0,VALID,23.2507,VALID,338,VALID,0.659766,
2012-06-25, 00:25:04,VALID,1001.28,VALID,0,VALID,83.5596,VALID,0,VALID,23.2329,VALID,338,VALID,0.657422,
2012-06-25, 00:26:04,VALID,1001.23,VALID,0,VALID,83.6206,VALID,0,VALID,23.1921,VALID,338,VALID,0.730078,
2012-06-25, 00:27:04,VALID,1001.31,VALID,0,VALID,83.7427,VALID,0,VALID,23.1531,VALID,338,VALID,0.522266,
2012-06-25, 00:28:04,VALID,1001.25,VALID,0,VALID,83.8037,VALID,0,VALID,23.1141,VALID,338,VALID,0.428516,
2012-06-25, 00:29:04,VALID,1001.24,VALID,0,VALID,83.6664,VALID,0,VALID,22.9971,VALID,7,VALID,0.749609,
2012-06-25, 00:30:04,VALID,1001.21,VALID,0,VALID,85.818,VALID,0,VALID,22.8605,VALID,29,VALID,0.626953,
2012-06-25, 00:31:04,VALID,1001.17,VALID,0,VALID,87.527,VALID,0,VALID,22.8215,VALID,29,VALID,0.675781,
2012-06-25, 00:32:04,VALID,1001.15,VALID,0,VALID,87.5041,VALID,0,VALID,22.8215,VALID,29,VALID,0.510547,
2012-06-25, 00:33:04,VALID,1001.12,VALID,0,VALID,87.6262,VALID,0,VALID,22.8427,VALID,29,VALID,0.709766,
2012-06-25, 00:34:04,VALID,1001.14,VALID,0,VALID,87.4507,VALID,0,VALID,22.841,VALID,29,VALID,0.228516,
2012-06-25, 00:35:04,VALID,1001.16,VALID,0,VALID,87.5651,VALID,0,VALID,22.8215,VALID,29,VALID,0,
2012-06-25, 00:36:04,VALID,1001.17,VALID,0,VALID,87.5957,VALID,0,VALID,22.8215,VALID,29,VALID,0.0207031,
2012-06-25, 00:37:04,VALID,1001.15,VALID,0,VALID,87.5499,VALID,0.104696,VALID,22.8215,VALID,31,VALID,1.06641,
2012-06-25, 00:38:04,VALID,1001.15,VALID,0,VALID,87.3286,VALID,0,VALID,22.841,VALID,31,VALID,0.507031,
2012-06-25, 00:39:04,VALID,1001.13,VALID,0,VALID,87.733,VALID,0,VALID,22.841,VALID,51,VALID,0.796094,
2012-06-25, 00:40:04,VALID,1001.15,VALID,0,VALID,88.4197,VALID,0,VALID,22.802,VALID,78,VALID,1.24141,
2012-06-25, 00:41:04,VALID,1001.09,VALID,0,VALID,89.6023,VALID,0,VALID,22.763,VALID,77,VALID,1.11758,
2012-06-25, 00:42:04,VALID,1001.08,VALID,0,VALID,90.1363,VALID,0,VALID,22.724,VALID,76,VALID,0.623047,
2012-06-25, 00:43:04,VALID,1001.09,VALID,0,VALID,90.0982,VALID,0,VALID,22.7045,VALID,64,VALID,0.639453,
2012-06-25, 00:44:04,VALID,1001.07,VALID,0,VALID,90.06,VALID,0,VALID,22.6655,VALID,64,VALID,0.367578,
2012-06-25, 00:45:04,VALID,1001.06,VALID,0,VALID,90.3271,VALID,0,VALID,22.6069,VALID,64,VALID,0.522266,
2012-06-25, 00:46:04,VALID,1001.09,VALID,0,VALID,90.762,VALID,0.104696,VALID,22.5679,VALID,64,VALID,0.584766,
2012-06-25, 00:47:04,VALID,1001.07,VALID,0,VALID,90.9298,VALID,0.104696,VALID,22.5679,VALID,64,VALID,0.666016,
2012-06-25, 00:48:04,VALID,1001.06,VALID,0,VALID,90.9527,VALID,0,VALID,22.5696,VALID,45,VALID,0.895703,
2012-06-25, 00:49:04,VALID,1001.06,VALID,0,VALID,90.8611,VALID,0,VALID,22.5484,VALID,43,VALID,0.853516,
2012-06-25, 00:50:04,VALID,1001.04,VALID,0,VALID,90.884,VALID,0,VALID,22.5289,VALID,43,VALID,1.02695,
2012-06-25, 00:51:04,VALID,1001.04,VALID,0,VALID,90.9146,VALID,0,VALID,22.5094,VALID,43,VALID,1.05234,
2012-06-25, 00:52:04,VALID,1000.99,VALID,0,VALID,90.678,VALID,0,VALID,22.4704,VALID,43,VALID,0.975,
2012-06-25, 00:53:04,VALID,1000.96,VALID,0,VALID,90.3728,VALID,0,VALID,22.4331,VALID,44,VALID,0.995703,
2012-06-25, 00:54:04,VALID,1000.94,VALID,0,VALID,90.8459,VALID,0,VALID,22.3729,VALID,50,VALID,0.88125,
2012-06-25, 00:55:04,VALID,1000.87,VALID,0,VALID,91.1129,VALID,0,VALID,22.3339,VALID,50,VALID,0.690625,
2012-06-25, 00:56:04,VALID,1000.89,VALID,0,VALID,91.5402,VALID,0,VALID,22.3144,VALID,50,VALID,0.35,
2012-06-25, 00:57:04,VALID,1000.86,VALID,0,VALID,91.5097,VALID,0,VALID,22.3356,VALID,50,VALID,0.428516,
2012-06-25, 00:58:04,VALID,1000.84,VALID,0,VALID,91.6012,VALID,0,VALID,22.3144,VALID,50,VALID,0.563672,
2012-06-25, 00:59:04,VALID,1000.85,VALID,0,VALID,91.792,VALID,0,VALID,22.3161,VALID,50,VALID,0.636328,
2012-06-25, 01:00:04,VALID,1000.85,VALID,0,VALID,91.914,VALID,0,VALID,22.2754,VALID,50,VALID,0.763672,
2012-06-25, 01:01:04,VALID,1000.84,VALID,0,VALID,92.1429,VALID,0,VALID,22.2559,VALID,50,VALID,0.595312,
2012-06-25, 01:02:04,VALID,1000.87,VALID,0,VALID,92.0285,VALID,0,VALID,22.2576,VALID,50,VALID,0.937891,
2012-06-25, 01:03:04,VALID,1000.87,VALID,0,VALID,92.1506,VALID,0,VALID,22.2169,VALID,50,VALID,1.15156,
2012-06-25, 01:04:04,VALID,1000.86,VALID,0,VALID,92.1887,VALID,0,VALID,22.2576,VALID,50,VALID,0.765625,
2012-06-25, 01:05:04,VALID,1000.89,VALID,0,VALID,91.9064,VALID,0,VALID,22.2364,VALID,50,VALID,0.682813,
2012-06-25, 01:06:04,VALID,1000.92,VALID,0,VALID,91.792,VALID,0,VALID,22.1974,VALID,50,VALID,0.385547,
2012-06-25, 01:07:04,VALID,1000.88,VALID,0,VALID,91.8148,VALID,0,VALID,22.1779,VALID,50,VALID,0.141406,
2012-06-25, 01:08:04,VALID,1000.88,VALID,0,VALID,91.998,VALID,0,VALID,22.1584,VALID,50,VALID,0.223438,
2012-06-25, 01:09:04,VALID,1000.82,VALID,0,VALID,92.0819,VALID,0,VALID,22.16,VALID,50,VALID,0.157813,
2012-06-25, 01:10:04,VALID,1000.83,VALID,0,VALID,92.2268,VALID,0,VALID,22.121,VALID,50,VALID,0.33125,
2012-06-25, 01:11:04,VALID,1000.78,VALID,0,VALID,92.3566,VALID,0,VALID,22.121,VALID,50,VALID,0.392188,
2012-06-25, 01:12:04,VALID,1000.77,VALID,0,VALID,92.471,VALID,0,VALID,22.0998,VALID,50,VALID,0.5625,
2012-06-25, 01:13:04,VALID,1000.78,VALID,0,VALID,92.5168,VALID,0,VALID,22.121,VALID,86,VALID,0.375,
2012-06-25, 01:14:04,VALID,1000.75,VALID,0,VALID,92.4939,VALID,0,VALID,22.121,VALID,86,VALID,0.291406,
2012-06-25, 01:15:04,VALID,1000.77,VALID,0,VALID,92.471,VALID,0,VALID,22.1015,VALID,86,VALID,0.440234,
2012-06-25, 01:16:04,VALID,1000.76,VALID,0,VALID,92.6083,VALID,0,VALID,22.1015,VALID,86,VALID,0.394922,
2012-06-25, 01:17:04,VALID,1000.76,VALID,0,VALID,92.8677,VALID,0,VALID,22.1405,VALID,86,VALID,0.360547,
2012-06-25, 01:18:04,VALID,1000.78,VALID,0,VALID,93.0203,VALID,0,VALID,22.1795,VALID,86,VALID,0.289063,
2012-06-25, 01:19:04,VALID,1000.81,VALID,0,VALID,93.0661,VALID,0,VALID,22.1795,VALID,86,VALID,0.112109,
2012-06-25, 01:20:04,VALID,1000.78,VALID,0,VALID,93.0814,VALID,0,VALID,22.199,VALID,86,VALID,0,
2012-06-25, 01:21:04,VALID,1000.76,VALID,0,VALID,93.0508,VALID,0,VALID,22.1795,VALID,86,VALID,0,
2012-06-25, 01:22:04,VALID,1000.76,VALID,0,VALID,93.15,VALID,0,VALID,22.199,VALID,86,VALID,0.270312,
2012-06-25, 01:23:04,VALID,1000.74,VALID,0,VALID,93.0127,VALID,0,VALID,22.2364,VALID,86,VALID,0.476172,
2012-06-25, 01:24:04,VALID,1000.71,VALID,0,VALID,92.7533,VALID,0,VALID,22.3161,VALID,86,VALID,0.75625,
2012-06-25, 01:25:04,VALID,1000.7,VALID,0,VALID,92.5778,VALID,0,VALID,22.3746,VALID,98,VALID,1.1625,
2012-06-25, 01:26:04,VALID,1000.69,VALID,0,VALID,92.4939,VALID,0,VALID,22.4119,VALID,94,VALID,1.17227,
2012-06-25, 01:27:04,VALID,1000.67,VALID,0,VALID,92.4786,VALID,0,VALID,22.4721,VALID,101,VALID,1.48906,
2012-06-25, 01:28:04,VALID,1000.67,VALID,0,VALID,92.5244,VALID,0,VALID,22.5111,VALID,99,VALID,1.4582,
2012-06-25, 01:29:04,VALID,1000.65,VALID,0,VALID,92.4405,VALID,0,VALID,22.5696,VALID,99,VALID,1.34531,
2012-06-25, 01:30:04,VALID,1000.64,VALID,0,VALID,92.2268,VALID,0,VALID,22.5892,VALID,108,VALID,1.05195,
2012-06-25, 01:31:04,VALID,1000.64,VALID,0,VALID,92.0743,VALID,0,VALID,22.6087,VALID,115,VALID,0.879687,
2012-06-25, 01:32:04,VALID,1000.58,VALID,0,VALID,91.8683,VALID,0,VALID,22.6282,VALID,106,VALID,0.960156,
2012-06-25, 01:33:04,VALID,1000.6,VALID,0,VALID,91.6699,VALID,0,VALID,22.6672,VALID,106,VALID,0.838672,
2012-06-25, 01:34:04,VALID,1000.58,VALID,0,VALID,91.3418,VALID,0,VALID,22.6672,VALID,106,VALID,0.917188,
2012-06-25, 01:35:04,VALID,1000.56,VALID,0,VALID,91.1663,VALID,0,VALID,22.6867,VALID,106,VALID,0.84375,
2012-06-25, 01:36:04,VALID,1000.6,VALID,0,VALID,91.0748,VALID,0,VALID,22.6867,VALID,106,VALID,0.408984,
2012-06-25, 01:37:04,VALID,1000.58,VALID,0,VALID,91.0137,VALID,0,VALID,22.7062,VALID,106,VALID,0.311719,
2012-06-25, 01:38:04,VALID,1000.55,VALID,0,VALID,90.9146,VALID,0,VALID,22.7062,VALID,106,VALID,0,
2012-06-25, 01:39:04,VALID,1000.57,VALID,0,VALID,90.6628,VALID,0,VALID,22.6672,VALID,106,VALID,0,
2012-06-25, 01:40:04,VALID,1000.54,VALID,0,VALID,90.3881,VALID,0,VALID,22.6477,VALID,106,VALID,0.120312,
2012-06-25, 01:41:04,VALID,1000.57,VALID,0,VALID,90.0982,VALID,0,VALID,22.6087,VALID,106,VALID,0,
2012-06-25, 01:42:04,VALID,1000.6,VALID,0,VALID,90.1592,VALID,0,VALID,22.5501,VALID,106,VALID,0,
2012-06-25, 01:43:04,VALID,1000.57,VALID,0,VALID,90.3728,VALID,0,VALID,22.5306,VALID,106,VALID,0,
2012-06-25, 01:44:04,VALID,1000.6,VALID,0,VALID,90.7543,VALID,0,VALID,22.5306,VALID,106,VALID,0.376563,
2012-06-25, 01:45:04,VALID,1000.59,VALID,0,VALID,90.8001,VALID,0,VALID,22.5094,VALID,335,VALID,0.599219,
2012-06-25, 01:46:04,VALID,1000.57,VALID,0,VALID,90.7391,VALID,0,VALID,22.4916,VALID,335,VALID,0.650391,
2012-06-25, 01:47:04,VALID,1000.58,VALID,0,VALID,91.0595,VALID,0,VALID,22.4704,VALID,327,VALID,0.501172,
2012-06-25, 01:48:04,VALID,1000.59,VALID,0,VALID,91.1434,VALID,0,VALID,22.4704,VALID,327,VALID,0.120703,
2012-06-25, 01:49:04,VALID,1000.52,VALID,0,VALID,91.0824,VALID,0,VALID,22.4704,VALID,327,VALID,0.514453,
2012-06-25, 01:50:04,VALID,1000.57,VALID,0,VALID,90.7085,VALID,0,VALID,22.4331,VALID,327,VALID,0.2875,
2012-06-25, 01:51:04,VALID,1000.56,VALID,0,VALID,90.9985,VALID,0,VALID,22.3924,VALID,327,VALID,0.559766,
2012-06-25, 01:52:04,VALID,1000.56,VALID,0,VALID,90.968,VALID,0,VALID,22.4136,VALID,327,VALID,0.462891,
2012-06-25, 01:53:04,VALID,1000.62,VALID,0,VALID,90.8383,VALID,0,VALID,22.3746,VALID,327,VALID,0,
2012-06-25, 01:54:04,VALID,1000.55,VALID,0,VALID,91.0519,VALID,0,VALID,22.3356,VALID,327,VALID,0.261328,
2012-06-25, 01:55:04,VALID,1000.6,VALID,0,VALID,91.4105,VALID,0,VALID,22.3551,VALID,327,VALID,0.428906,
2012-06-25, 01:56:04,VALID,1000.62,VALID,0,VALID,91.5402,VALID,0,VALID,22.3746,VALID,327,VALID,0.177344,
2012-06-25, 01:57:04,VALID,1000.61,VALID,0,VALID,91.6546,VALID,0,VALID,22.3746,VALID,327,VALID,0.0644531,
2012-06-25, 01:58:04,VALID,1000.54,VALID,0,VALID,91.5707,VALID,0,VALID,22.4136,VALID,327,VALID,0.45625,
2012-06-25, 01:59:04,VALID,1000.62,VALID,0,VALID,91.4105,VALID,0,VALID,22.4721,VALID,327,VALID,0.520312,
2012-06-25, 02:00:04,VALID,1000.61,VALID,0,VALID,91.029,VALID,0,VALID,22.4916,VALID,327,VALID,0.246484,
2012-06-25, 02:01:04,VALID,1000.63,VALID,0,VALID,90.8001,VALID,0,VALID,22.5111,VALID,327,VALID,0.207813,
2012-06-25, 02:02:04,VALID,1000.64,VALID,0,VALID,90.7085,VALID,0,VALID,22.5306,VALID,327,VALID,0.480469,
2012-06-25, 02:03:04,VALID,1000.66,VALID,0,VALID,90.4949,VALID,0,VALID,22.5696,VALID,327,VALID,0.454688,
2012-06-25, 02:04:04,VALID,1000.64,VALID,0,VALID,90.0295,VALID,0,VALID,22.6282,VALID,46,VALID,0.753906,
2012-06-25, 02:05:04,VALID,1000.65,VALID,0,VALID,89.8464,VALID,0,VALID,22.6672,VALID,73,VALID,0.791797,
2012-06-25, 02:06:04,VALID,1000.66,VALID,0,VALID,89.4191,VALID,0,VALID,22.7452,VALID,97,VALID,0.939062,
2012-06-25, 02:07:04,VALID,1000.63,VALID,0,VALID,88.8774,VALID,0,VALID,22.8623,VALID,104,VALID,1.13555,
2012-06-25, 02:08:04,VALID,1000.64,VALID,0,VALID,88.6104,VALID,0,VALID,22.9208,VALID,112,VALID,1.55703,
2012-06-25, 02:09:04,VALID,1000.61,VALID,0,VALID,88.3052,VALID,0,VALID,23.0183,VALID,126,VALID,1.68516,
2012-06-25, 02:10:04,VALID,1000.58,VALID,0,VALID,87.8093,VALID,0,VALID,23.1354,VALID,130,VALID,1.60625,
2012-06-25, 02:11:04,VALID,1000.59,VALID,0,VALID,87.3057,VALID,0,VALID,23.2329,VALID,133,VALID,1.4125,
2012-06-25, 02:12:04,VALID,1000.58,VALID,0,VALID,86.8785,VALID,0,VALID,23.3305,VALID,129,VALID,1.44609,
2012-06-25, 02:13:04,VALID,1000.6,VALID,0,VALID,86.436,VALID,0,VALID,23.4085,VALID,133,VALID,1.58203,
2012-06-25, 02:14:04,VALID,1000.64,VALID,0,VALID,86.0469,VALID,0,VALID,23.4866,VALID,131,VALID,1.25625,
2012-06-25, 02:15:04,VALID,1000.67,VALID,0,VALID,85.8561,VALID,0,VALID,23.5256,VALID,134,VALID,1.50273,
2012-06-25, 02:16:04,VALID,1000.7,VALID,0,VALID,85.7112,VALID,0.104696,VALID,23.5451,VALID,124,VALID,1.4293,
2012-06-25, 02:17:04,VALID,1000.68,VALID,0,VALID,85.7264,VALID,0,VALID,23.5451,VALID,111,VALID,1.54922,
2012-06-25, 02:18:04,VALID,1000.71,VALID,0,VALID,85.8256,VALID,0,VALID,23.5451,VALID,126,VALID,1.53633,
2012-06-25, 02:19:04,VALID,1000.68,VALID,0,VALID,85.7874,VALID,0,VALID,23.5841,VALID,119,VALID,1.79102,
2012-06-25, 02:20:04,VALID,1000.66,VALID,0,VALID,85.4899,VALID,0,VALID,23.6019,VALID,121,VALID,1.64414,
2012-06-25, 02:21:04,VALID,1000.67,VALID,0,VALID,85.2305,VALID,0.104696,VALID,23.6817,VALID,118,VALID,1.67266,
2012-06-25, 02:22:04,VALID,1000.66,VALID,0,VALID,84.8414,VALID,0,VALID,23.7597,VALID,111,VALID,1.61016,
2012-06-25, 02:23:04,VALID,1000.67,VALID,0,VALID,84.4065,VALID,0,VALID,23.7988,VALID,122,VALID,1.77344,
2012-06-25, 02:24:04,VALID,1000.66,VALID,0,VALID,84.5133,VALID,0,VALID,23.8183,VALID,120,VALID,1.30898,
2012-06-25, 02:25:04,VALID,1000.67,VALID,0,VALID,84.582,VALID,0,VALID,23.8183,VALID,108,VALID,0.894922,
2012-06-25, 02:26:04,VALID,1000.68,VALID,0,VALID,84.6735,VALID,0,VALID,23.7988,VALID,123,VALID,1.32578,
2012-06-25, 02:27:04,VALID,1000.68,VALID,0,VALID,84.9024,VALID,0,VALID,23.7793,VALID,122,VALID,0.870313,
2012-06-25, 02:28:04,VALID,1000.69,VALID,0,VALID,85.0474,VALID,0,VALID,23.7402,VALID,130,VALID,0.667188,
2012-06-25, 02:29:04,VALID,1000.67,VALID,0,VALID,85.2763,VALID,0,VALID,23.6994,VALID,105,VALID,0.913672,
2012-06-25, 02:30:04,VALID,1000.66,VALID,0,VALID,85.4746,VALID,0,VALID,23.6799,VALID,113,VALID,1.04609,
2012-06-25, 02:31:04,VALID,1000.67,VALID,0,VALID,85.6349,VALID,0,VALID,23.6799,VALID,133,VALID,1.58594,
2012-06-25, 02:32:04,VALID,1000.71,VALID,0,VALID,85.4594,VALID,0,VALID,23.7597,VALID,164,VALID,2.07539,
2012-06-25, 02:33:04,VALID,1000.69,VALID,0,VALID,85.2,VALID,0,VALID,23.8183,VALID,147,VALID,1.59922,
2012-06-25, 02:34:04,VALID,1000.7,VALID,0,VALID,84.8643,VALID,0,VALID,23.8573,VALID,147,VALID,2.15195,
2012-06-25, 02:35:04,VALID,1000.67,VALID,0,VALID,84.5438,VALID,0,VALID,23.9159,VALID,148,VALID,1.78398,
2012-06-25, 02:36:04,VALID,1000.68,VALID,0,VALID,84.3378,VALID,0,VALID,23.9549,VALID,142,VALID,1.475,
2012-06-25, 02:37:04,VALID,1000.69,VALID,0,VALID,84.3455,VALID,0,VALID,23.9744,VALID,119,VALID,1.88711,
2012-06-25, 02:38:04,VALID,1000.7,VALID,0,VALID,84.4446,VALID,0,VALID,23.9744,VALID,133,VALID,1.2457,
2012-06-25, 02:39:04,VALID,1000.74,VALID,0,VALID,84.4675,VALID,0,VALID,23.9354,VALID,133,VALID,1.97695,
2012-06-25, 02:40:04,VALID,1000.77,VALID,0,VALID,84.6888,VALID,0,VALID,23.9354,VALID,137,VALID,1.45391,
2012-06-25, 02:41:04,VALID,1000.77,VALID,0,VALID,84.5667,VALID,0,VALID,23.9549,VALID,136,VALID,1.82539,
2012-06-25, 02:42:04,VALID,1000.78,VALID,0,VALID,84.6506,VALID,0,VALID,23.9354,VALID,132,VALID,1.61484,
2012-06-25, 02:43:04,VALID,1000.78,VALID,0,VALID,84.7498,VALID,0,VALID,23.9549,VALID,131,VALID,2.02383,
2012-06-25, 02:44:04,VALID,1000.74,VALID,0,VALID,84.8032,VALID,0,VALID,23.9744,VALID,139,VALID,1.74375,
2012-06-25, 02:45:04,VALID,1000.75,VALID,0,VALID,84.5896,VALID,0,VALID,23.9549,VALID,122,VALID,2.20547,
2012-06-25, 02:46:04,VALID,1000.72,VALID,0,VALID,84.4523,VALID,0,VALID,24.0134,VALID,129,VALID,1.61172,
2012-06-25, 02:47:04,VALID,1000.74,VALID,0,VALID,84.6277,VALID,0,VALID,24.0134,VALID,128,VALID,1.4293,
2012-06-25, 02:48:04,VALID,1000.72,VALID,0,VALID,84.231,VALID,0,VALID,24.0134,VALID,130,VALID,2.20391,
2012-06-25, 02:49:04,VALID,1000.69,VALID,0,VALID,84.4446,VALID,0,VALID,23.9921,VALID,134,VALID,1.54688,
2012-06-25, 02:50:04,VALID,1000.7,VALID,0,VALID,84.2157,VALID,0,VALID,24.0134,VALID,139,VALID,2.03477,
2012-06-25, 02:51:04,VALID,1000.66,VALID,0,VALID,84.2005,VALID,0,VALID,23.9921,VALID,131,VALID,2.15781,
2012-06-25, 02:52:04,VALID,1000.67,VALID,0,VALID,84.1929,VALID,0,VALID,24.0134,VALID,142,VALID,1.67031,
2012-06-25, 02:53:04,VALID,1000.71,VALID,0,VALID,84.231,VALID,0,VALID,24.0329,VALID,158,VALID,1.13711,
2012-06-25, 02:54:04,VALID,1000.71,VALID,0,VALID,84.3226,VALID,0,VALID,23.9939,VALID,144,VALID,0.936719,
2012-06-25, 02:55:04,VALID,1000.73,VALID,0,VALID,84.3989,VALID,0,VALID,23.9744,VALID,132,VALID,0.848828,
2012-06-25, 02:56:04,VALID,1000.73,VALID,0,VALID,84.2081,VALID,0,VALID,23.9726,VALID,127,VALID,1.44336,
2012-06-25, 02:57:04,VALID,1000.74,VALID,0,VALID,83.9029,VALID,0,VALID,24.0329,VALID,130,VALID,1.78398,
2012-06-25, 02:58:04,VALID,1000.74,VALID,0,VALID,83.9716,VALID,0,VALID,24.0525,VALID,137,VALID,1.23594,
2012-06-25, 02:59:04,VALID,1000.71,VALID,0,VALID,84.1395,VALID,0,VALID,24.0116,VALID,117,VALID,0.870703,
2012-06-25, 03:00:04,VALID,1000.68,VALID,0,VALID,84.0784,VALID,0,VALID,23.9939,VALID,120,VALID,1.17969,
2012-06-25, 03:01:04,VALID,1000.66,VALID,0,VALID,84.292,VALID,0,VALID,23.9939,VALID,111,VALID,0.875391,
2012-06-25, 03:02:04,VALID,1000.64,VALID,0,VALID,84.4752,VALID,0,VALID,23.9354,VALID,139,VALID,1.01875,
2012-06-25, 03:03:04,VALID,1000.63,VALID,0,VALID,84.6659,VALID,0,VALID,23.8945,VALID,124,VALID,1.02539,
2012-06-25, 03:04:04,VALID,1000.63,VALID,0,VALID,84.4141,VALID,0,VALID,23.9159,VALID,115,VALID,1.42422,
2012-06-25, 03:05:04,VALID,1000.62,VALID,0,VALID,83.9869,VALID,0,VALID,23.9939,VALID,134,VALID,1.80078,
2012-06-25, 03:06:04,VALID,1000.61,VALID,0,VALID,83.6893,VALID,0,VALID,24.0525,VALID,123,VALID,1.48789,
2012-06-25, 03:07:04,VALID,1000.6,VALID,0,VALID,83.552,VALID,0,VALID,24.0525,VALID,127,VALID,1.225,
2012-06-25, 03:08:04,VALID,1000.66,VALID,0,VALID,83.1705,VALID,0,VALID,24.0525,VALID,113,VALID,1.39727,
2012-06-25, 03:09:04,VALID,1000.62,VALID,0,VALID,83.0026,VALID,0,VALID,23.9921,VALID,106,VALID,1.24141,
2012-06-25, 03:10:04,VALID,1000.59,VALID,0,VALID,82.6517,VALID,0,VALID,24.0116,VALID,107,VALID,1.34063,
2012-06-25, 03:11:04,VALID,1000.55,VALID,0,VALID,82.5754,VALID,0,VALID,24.0329,VALID,109,VALID,1.23594,
2012-06-25, 03:12:04,VALID,1000.55,VALID,0,VALID,82.0871,VALID,0,VALID,24.0329,VALID,116,VALID,1.86172,
2012-06-25, 03:13:04,VALID,1000.54,VALID,0,VALID,82.3541,VALID,0,VALID,24.0116,VALID,97,VALID,0.958984,
2012-06-25, 03:14:04,VALID,1000.53,VALID,0,VALID,82.7585,VALID,0,VALID,23.9744,VALID,73,VALID,0.910547,
2012-06-25, 03:15:04,VALID,1000.54,VALID,0,VALID,83.0637,VALID,0,VALID,23.8183,VALID,55,VALID,0.936328,
2012-06-25, 03:16:04,VALID,1000.57,VALID,0,VALID,84.1318,VALID,0,VALID,23.6835,VALID,55,VALID,0.933594,
2012-06-25, 03:17:04,VALID,1000.57,VALID,0,VALID,85.2763,VALID,0,VALID,23.5256,VALID,42,VALID,0.877734,
2012-06-25, 03:18:04,VALID,1000.57,VALID,0,VALID,86.6115,VALID,0,VALID,23.4085,VALID,27,VALID,0.730859,
2012-06-25, 03:19:04,VALID,1000.55,VALID,0,VALID,87.0692,VALID,0,VALID,23.35,VALID,27,VALID,0.482422,
2012-06-25, 03:20:04,VALID,1000.6,VALID,0,VALID,87.6796,VALID,0,VALID,23.2719,VALID,32,VALID,0.6375,
2012-06-25, 03:21:04,VALID,1000.57,VALID,0,VALID,87.7711,VALID,0,VALID,23.2915,VALID,39,VALID,0.628516,
2012-06-25, 03:22:04,VALID,1000.56,VALID,0,VALID,87.6186,VALID,0,VALID,23.311,VALID,29,VALID,0.819531,
2012-06-25, 03:23:04,VALID,1000.53,VALID,0,VALID,87.4812,VALID,0,VALID,23.311,VALID,29,VALID,0.735937,
2012-06-25, 03:24:04,VALID,1000.55,VALID,0,VALID,87.2218,VALID,0,VALID,23.35,VALID,31,VALID,0.64375,
2012-06-25, 03:25:04,VALID,1000.53,VALID,0,VALID,87.1608,VALID,0,VALID,23.3695,VALID,40,VALID,0.667578,
2012-06-25, 03:26:04,VALID,1000.54,VALID,0,VALID,86.7946,VALID,0,VALID,23.4085,VALID,40,VALID,0.70625,
2012-06-25, 03:27:04,VALID,1000.54,VALID,0,VALID,86.2605,VALID,0,VALID,23.428,VALID,40,VALID,0.689062,
2012-06-25, 03:28:04,VALID,1000.55,VALID,0,VALID,85.5815,VALID,0,VALID,23.4671,VALID,40,VALID,0.707031,
2012-06-25, 03:29:04,VALID,1000.58,VALID,0,VALID,85.0626,VALID,0,VALID,23.4866,VALID,74,VALID,0.583984,
2012-06-25, 03:30:04,VALID,1000.6,VALID,0,VALID,85.261,VALID,0,VALID,23.4653,VALID,73,VALID,0.419531,
2012-06-25, 03:31:04,VALID,1000.63,VALID,0,VALID,85.3144,VALID,0,VALID,23.4475,VALID,83,VALID,0.677344,
2012-06-25, 03:32:04,VALID,1000.63,VALID,0,VALID,85.7646,VALID,0,VALID,23.4671,VALID,101,VALID,0.664844,
2012-06-25, 03:33:04,VALID,1000.64,VALID,0,VALID,85.4899,VALID,0,VALID,23.4475,VALID,101,VALID,0.658203,
2012-06-25, 03:34:04,VALID,1000.64,VALID,0,VALID,86.0163,VALID,0,VALID,23.4085,VALID,101,VALID,0.569141,
2012-06-25, 03:35:04,VALID,1000.69,VALID,0,VALID,86.23,VALID,0,VALID,23.4085,VALID,101,VALID,0.542188,
2012-06-25, 03:36:04,VALID,1000.71,VALID,0,VALID,86.4512,VALID,0,VALID,23.4103,VALID,101,VALID,0.366797,
2012-06-25, 03:37:04,VALID,1000.73,VALID,0,VALID,86.5809,VALID,0,VALID,23.3695,VALID,101,VALID,0.348828,
2012-06-25, 03:38:04,VALID,1000.73,VALID,0,VALID,86.97,VALID,0,VALID,23.3305,VALID,101,VALID,0.468359,
2012-06-25, 03:39:04,VALID,1000.77,VALID,0,VALID,87.3286,VALID,0,VALID,23.2915,VALID,101,VALID,0.446094,
2012-06-25, 03:40:04,VALID,1000.74,VALID,0,VALID,87.8398,VALID,0,VALID,23.2719,VALID,101,VALID,0.443359,
2012-06-25, 03:41:04,VALID,1000.73,VALID,0,VALID,87.9695,VALID,0,VALID,23.2737,VALID,101,VALID,0.441797,
2012-06-25, 03:42:04,VALID,1000.76,VALID,0,VALID,88.084,VALID,0,VALID,23.2134,VALID,101,VALID,0.375781,
2012-06-25, 03:43:04,VALID,1000.76,VALID,0,VALID,88.084,VALID,0,VALID,23.1939,VALID,101,VALID,0.0257812,
2012-06-25, 03:44:04,VALID,1000.75,VALID,0,VALID,88.0687,VALID,0,VALID,23.1549,VALID,101,VALID,0,
2012-06-25, 03:45:04,VALID,1000.79,VALID,0,VALID,88.2137,VALID,0,VALID,23.0964,VALID,101,VALID,0,
2012-06-25, 03:46:04,VALID,1000.81,VALID,0,VALID,88.496,VALID,0,VALID,23.0769,VALID,101,VALID,0,